| time (UTC) | temp F | wind direction | speed MPH | gust MPH | rain 1hr in | rain 24hr in | rain mn in | humidity % | barometer mb |
| 20260507234503 | 66 | 286 | 2.0 | 4.0 | 0.00 | 0.00 | 0.00 | 64 | 1011.6 |
| 20260507233603 | 66 | 272 | 2.0 | 4.0 | 0.00 | 0.00 | 0.00 | 63 | 1011.6 |
| 20260507232704 | 66 | 268 | 2.0 | 4.0 | 0.00 | 0.00 | 0.00 | 63 | 1012.0 |
| 20260507231804 | 66 | 234 | 0.0 | 4.0 | 0.00 | 0.00 | 0.00 | 62 | 1011.8 |
| 20260507230903 | 66 | 141 | 2.0 | 4.0 | 0.00 | 0.00 | 0.00 | 62 | 1011.5 |
| 20260507230213 | 66 | 212 | 1.0 | 4.0 | 0.00 | 0.00 | 0.00 | 62 | 1011.7 |
| 20260507225614 | 66 | 233 | 2.0 | 4.0 | 0.00 | 0.00 | 0.00 | 62 | 1011.8 |
| 20260507224504 | 66 | 255 | 0.0 | 6.0 | 0.00 | 0.00 | 0.00 | 60 | 1012.1 |
| 20260507223603 | 66 | 250 | 1.0 | 4.0 | 0.00 | 0.00 | 0.00 | 60 | 1012.1 |
| 20260507222704 | 66 | 236 | 1.0 | 4.0 | 0.00 | 0.00 | 0.00 | 59 | 1012.3 |
| 20260507222014 | 66 | 240 | 2.0 | 4.0 | 0.00 | 0.00 | 0.00 | 58 | 1012.1 |
| 20260507221116 | 66 | 207 | 2.0 | 4.0 | 0.00 | 0.00 | 0.00 | 58 | 1012.2 |
| 20260507220213 | 66 | 167 | 0.0 | 4.0 | 0.00 | 0.00 | 0.00 | 57 | 1012.3 |
| 20260507215403 | 66 | 167 | 1.0 | 4.0 | 0.00 | 0.00 | 0.00 | 57 | 1012.5 |
| 20260507214503 | 67 | 239 | 1.0 | 4.0 | 0.00 | 0.00 | 0.00 | 56 | 1012.6 |
| 20260507213603 | 67 | 175 | 0.0 | 4.0 | 0.00 | 0.00 | 0.00 | 54 | 1012.6 |
| 20260507212917 | 67 | 147 | 2.0 | 4.0 | 0.00 | 0.00 | 0.00 | 54 | 1012.6 |
| 20260507212014 | 67 | 224 | 1.0 | 4.0 | 0.00 | 0.00 | 0.00 | 53 | 1012.7 |
| 20260507211117 | 67 | 228 | 1.0 | 4.0 | 0.00 | 0.00 | 0.00 | 52 | 1012.6 |
| 20260507210009 | 67 | 206 | 2.0 | 7.0 | 0.00 | 0.00 | 0.00 | 50 | 1012.7 |
| 20260507205403 | 68 | 217 | 2.0 | 7.0 | 0.00 | 0.00 | 0.00 | 48 | 1012.7 |
| 20260507204503 | 68 | 212 | 2.0 | 4.0 | 0.00 | 0.00 | 0.00 | 45 | 1012.4 |
| 20260507203603 | 68 | 268 | 1.0 | 4.0 | 0.00 | 0.00 | 0.00 | 46 | 1012.4 |
| 20260507202704 | 68 | 274 | 2.0 | 4.0 | 0.00 | 0.00 | 0.00 | 45 | 1012.5 |
| 20260507202015 | 68 | 280 | 3.0 | 4.0 | 0.00 | 0.00 | 0.00 | 46 | 1012.9 |
| 20260507200903 | 68 | 283 | 2.0 | 4.0 | 0.00 | 0.00 | 0.00 | 46 | 1012.7 |
| 20260507200215 | 68 | 270 | 2.0 | 4.0 | 0.00 | 0.00 | 0.00 | 46 | 1012.4 |
| 20260507195403 | 68 | 278 | 1.0 | 4.0 | 0.00 | 0.00 | 0.00 | 47 | 1012.4 |
| 20260507194714 | 68 | 268 | 2.0 | 4.0 | 0.00 | 0.00 | 0.00 | 46 | 1012.5 |
| 20260507193816 | 68 | 267 | 2.0 | 4.0 | 0.00 | 0.00 | 0.00 | 45 | 1012.3 |
| 20260507192913 | 68 | 289 | 1.0 | 4.0 | 0.00 | 0.00 | 0.00 | 45 | 1012.1 |
| 20260507192016 | 68 | 292 | 2.0 | 4.0 | 0.00 | 0.00 | 0.00 | 45 | 1012.5 |
| 20260507191113 | 68 | 272 | 1.0 | 4.0 | 0.00 | 0.00 | 0.00 | 45 | 1012.2 |
| 20260507190005 | 68 | 247 | 1.0 | 2.0 | 0.00 | 0.00 | 0.00 | 45 | 1012.1 |
| 20260507185403 | 68 | 245 | 0.0 | 4.0 | 0.00 | 0.00 | 0.00 | 45 | 1012.1 |
| 20260507184504 | 68 | 238 | 1.0 | 4.0 | 0.00 | 0.00 | 0.00 | 45 | 1012.2 |
| 20260507183603 | 68 | 247 | 2.0 | 4.0 | 0.00 | 0.00 | 0.00 | 44 | 1012.3 |
| 20260507182914 | 68 | 241 | 1.0 | 4.0 | 0.00 | 0.00 | 0.00 | 44 | 1012.0 |
| 20260507182016 | 69 | 171 | 2.0 | 4.0 | 0.00 | 0.00 | 0.00 | 44 | 1012.0 |
| 20260507181114 | 69 | 227 | 1.0 | 4.0 | 0.00 | 0.00 | 0.00 | 44 | 1012.0 |
| 20260507180004 | 69 | 193 | 2.0 | 4.0 | 0.00 | 0.00 | 0.00 | 44 | 1012.2 |
| 20260507175618 | 69 | 222 | 2.0 | 4.0 | 0.00 | 0.00 | 0.00 | 44 | 1012.1 |
| 20260507174715 | 69 | 270 | 2.0 | 6.0 | 0.00 | 0.00 | 0.00 | 46 | 1011.8 |
| 20260507173817 | 69 | 239 | 2.0 | 9.0 | 0.00 | 0.00 | 0.00 | 45 | 1012.0 |
| 20260507172915 | 69 | 261 | 1.0 | 9.0 | 0.00 | 0.00 | 0.00 | 45 | 1012.0 |
| 20260507172017 | 70 | 256 | 2.0 | 9.0 | 0.00 | 0.00 | 0.00 | 44 | 1012.1 |
| 20260507171114 | 71 | 256 | 4.0 | 8.0 | 0.00 | 0.00 | 0.00 | 42 | 1011.9 |
| 20260507170004 | 71 | 238 | 2.0 | 7.0 | 0.00 | 0.00 | 0.00 | 39 | 1011.7 |
| 20260507165613 | 71 | 230 | 3.0 | 7.0 | 0.00 | 0.00 | 0.00 | 39 | 1011.7 |
| 20260507164715 | 72 | 190 | 2.0 | 6.0 | 0.00 | 0.00 | 0.00 | 38 | 1011.3 |
| 20260507163603 | 71 | 204 | 2.0 | 7.0 | 0.00 | 0.00 | 0.00 | 41 | 1011.2 |
| 20260507162704 | 72 | 199 | 2.0 | 7.0 | 0.00 | 0.00 | 0.00 | 40 | 1011.4 |
| 20260507162018 | 72 | 156 | 2.0 | 4.0 | 0.00 | 0.00 | 0.00 | 43 | 1011.4 |
| 20260507161115 | 72 | 106 | 0.0 | 7.0 | 0.00 | 0.00 | 0.00 | 39 | 1011.6 |
| 20260507160004 | 72 | 131 | 1.0 | 7.0 | 0.00 | 0.00 | 0.00 | 39 | 1011.4 |
| 20260507155403 | 72 | 146 | 2.0 | 7.0 | 0.00 | 0.00 | 0.00 | 39 | 1011.6 |
| 20260507154504 | 72 | 244 | 2.0 | 6.0 | 0.00 | 0.00 | 0.00 | 43 | 1011.6 |
| 20260507153813 | 72 | 252 | 3.0 | 7.0 | 0.00 | 0.00 | 0.00 | 41 | 1011.8 |
| 20260507152916 | 72 | 263 | 2.0 | 8.0 | 0.00 | 0.00 | 0.00 | 45 | 1011.8 |
| 20260507151804 | 73 | 267 | 2.0 | 9.0 | 0.00 | 0.00 | 0.00 | 44 | 1012.2 |
| 20260507151115 | 73 | 234 | 6.0 | 9.0 | 0.00 | 0.00 | 0.00 | 44 | 1011.8 |
| 20260507150218 | 74 | 153 | 3.0 | 6.0 | 0.00 | 0.00 | 0.00 | 37 | 1012.0 |
| 20260507145614 | 74 | 235 | 2.0 | 9.0 | 0.00 | 0.00 | 0.00 | 35 | 1011.9 |
| 20260507144717 | 73 | 265 | 4.0 | 9.0 | 0.00 | 0.00 | 0.00 | 37 | 1011.9 |
| 20260507143814 | 74 | 265 | 5.0 | 11.0 | 0.00 | 0.00 | 0.00 | 37 | 1012.1 |
| 20260507142916 | 74 | 228 | 3.0 | 11.0 | 0.00 | 0.00 | 0.00 | 34 | 1012.0 |
| 20260507142014 | 75 | 145 | 4.0 | 9.0 | 0.00 | 0.00 | 0.00 | 31 | 1011.8 |
| 20260507141116 | 74 | 242 | 4.0 | 11.0 | 0.00 | 0.00 | 0.00 | 30 | 1011.8 |
| 20260507140213 | 76 | 237 | 3.0 | 11.0 | 0.00 | 0.00 | 0.00 | 31 | 1011.6 |
| 20260507135403 | 76 | 235 | 4.0 | 13.0 | 0.00 | 0.00 | 0.00 | 32 | 1011.6 |
| 20260507134717 | 77 | 210 | 3.0 | 11.0 | 0.00 | 0.00 | 0.00 | 31 | 1011.4 |
| 20260507133815 | 76 | 215 | 4.0 | 13.0 | 0.00 | 0.00 | 0.00 | 31 | 1011.3 |
| 20260507132917 | 76 | 228 | 4.0 | 11.0 | 0.00 | 0.00 | 0.00 | 32 | 1011.4 |
| 20260507131804 | 76 | 257 | 4.0 | 9.0 | 0.00 | 0.00 | 0.00 | 32 | 1011.4 |
| 20260507131117 | 76 | 247 | 2.0 | 9.0 | 0.00 | 0.00 | 0.00 | 33 | 1011.3 |
| 20260507130214 | 74 | 257 | 3.0 | 11.0 | 0.00 | 0.00 | 0.00 | 36 | 1011.5 |
| 20260507125616 | 73 | 258 | 7.0 | 11.0 | 0.00 | 0.00 | 0.00 | 45 | 1011.7 |
| 20260507124503 | 72 | 245 | 4.0 | 13.0 | 0.00 | 0.00 | 0.00 | 46 | 1011.8 |
| 20260507123603 | 72 | 256 | 3.0 | 11.0 | 0.00 | 0.00 | 0.00 | 45 | 1012.0 |
| 20260507122913 | 73 | 261 | 6.0 | 9.0 | 0.00 | 0.00 | 0.00 | 46 | 1011.9 |
| 20260507121804 | 73 | 245 | 4.0 | 9.0 | 0.00 | 0.00 | 0.00 | 45 | 1012.1 |
| 20260507121117 | 74 | 250 | 2.0 | 11.0 | 0.00 | 0.00 | 0.00 | 42 | 1012.0 |
| 20260507120004 | 73 | 226 | 2.0 | 8.0 | 0.00 | 0.00 | 0.00 | 48 | 1012.0 |
| 20260507115616 | 74 | 188 | 2.0 | 8.0 | 0.00 | 0.00 | 0.00 | 51 | 1011.9 |
| 20260507114503 | 74 | 223 | 2.0 | 15.0 | 0.00 | 0.00 | 0.00 | 53 | 1012.1 |
| 20260507113816 | 74 | 157 | 3.0 | 9.0 | 0.00 | 0.00 | 0.00 | 52 | 1012.2 |
| 20260507112703 | 73 | 231 | 5.0 | 13.0 | 0.00 | 0.00 | 0.00 | 50 | 1012.3 |
| 20260507111804 | 73 | 229 | 4.0 | 13.0 | 0.00 | 0.00 | 0.00 | 49 | 1012.5 |
| 20260507111113 | 73 | 239 | 6.0 | 11.0 | 0.00 | 0.00 | 0.00 | 50 | 1012.5 |
| 20260507110004 | 72 | 233 | 3.0 | 11.0 | 0.00 | 0.00 | 0.00 | 52 | 1012.3 |
| 20260507105403 | 73 | 129 | 4.0 | 11.0 | 0.00 | 0.00 | 0.00 | 50 | 1012.2 |
| 20260507104714 | 72 | 238 | 4.0 | 17.0 | 0.00 | 0.00 | 0.00 | 53 | 1012.2 |
| 20260507103817 | 73 | 261 | 3.0 | 13.0 | 0.00 | 0.00 | 0.00 | 58 | 1012.3 |
| 20260507102914 | 73 | 198 | 4.0 | 11.0 | 0.00 | 0.00 | 0.00 | 58 | 1012.0 |
| 20260507101804 | 74 | 229 | 3.0 | 9.0 | 0.00 | 0.00 | 0.00 | 60 | 1011.7 |
| 20260507101114 | 74 | 127 | 4.0 | 7.0 | 0.00 | 0.00 | 0.00 | 60 | 1011.9 |
| 20260507100004 | 74 | 230 | 5.0 | 9.0 | 0.00 | 0.00 | 0.00 | 56 | 1011.9 |
| 20260507095403 | 73 | 227 | 3.0 | 9.0 | 0.00 | 0.00 | 0.00 | 59 | 1012.0 |
| 20260507094715 | 74 | 219 | 3.0 | 8.0 | 0.00 | 0.00 | 0.00 | 54 | 1011.9 |
| 20260507093603 | 74 | 122 | 4.0 | 8.0 | 0.00 | 0.00 | 0.00 | 54 | 1012.0 |
| 20260507092703 | 74 | 204 | 2.0 | 8.0 | 0.00 | 0.00 | 0.00 | 51 | 1012.1 |
| 20260507091804 | 75 | 227 | 2.0 | 9.0 | 0.00 | 0.00 | 0.00 | 46 | 1011.8 |
| 20260507091114 | 74 | 156 | 3.0 | 9.0 | 0.00 | 0.00 | 0.00 | 47 | 1012.0 |
| 20260507090217 | 74 | 127 | 2.0 | 6.0 | 0.00 | 0.00 | 0.00 | 46 | 1011.8 |
| 20260507085403 | 74 | 114 | 2.0 | 6.0 | 0.00 | 0.00 | 0.00 | 44 | 1011.9 |
| 20260507084503 | 74 | 124 | 2.0 | 7.0 | 0.00 | 0.00 | 0.00 | 45 | 1011.8 |
| 20260507083813 | 74 | 149 | 4.0 | 7.0 | 0.00 | 0.00 | 0.00 | 44 | 1011.9 |
| 20260507082704 | 74 | 198 | 2.0 | 4.0 | 0.00 | 0.00 | 0.00 | 44 | 1011.8 |
| 20260507081804 | 74 | 138 | 2.0 | 4.0 | 0.00 | 0.00 | 0.00 | 42 | 1011.7 |
| 20260507080903 | 74 | 206 | 2.0 | 6.0 | 0.00 | 0.00 | 0.00 | 45 | 1011.7 |
| 20260507080004 | 73 | 184 | 2.0 | 6.0 | 0.00 | 0.00 | 0.00 | 43 | 1011.7 |
| 20260507075614 | 72 | 125 | 2.0 | 6.0 | 0.00 | 0.00 | 0.00 | 44 | 1011.8 |
| 20260507074503 | 72 | 246 | 2.0 | 8.0 | 0.00 | 0.00 | 0.00 | 45 | 1011.6 |
| 20260507073813 | 71 | 243 | 4.0 | 8.0 | 0.00 | 0.00 | 0.00 | 46 | 1011.6 |
| 20260507072704 | 72 | 194 | 1.0 | 4.0 | 0.00 | 0.00 | 0.00 | 45 | 1011.5 |
| 20260507072013 | 72 | 152 | 2.0 | 4.0 | 0.00 | 0.00 | 0.00 | 47 | 1011.5 |
| 20260507071115 | 72 | 174 | 2.0 | 6.0 | 0.00 | 0.00 | 0.00 | 49 | 1011.5 |
| 20260507070213 | 71 | 128 | 2.0 | 6.0 | 0.00 | 0.00 | 0.00 | 49 | 1011.6 |
| 20260507065403 | 71 | 213 | 2.0 | 6.0 | 0.00 | 0.00 | 0.00 | 50 | 1011.6 |
| 20260507064717 | 72 | 140 | 2.0 | 4.0 | 0.00 | 0.00 | 0.00 | 50 | 1011.9 |
| 20260507063814 | 72 | 169 | 1.0 | 6.0 | 0.00 | 0.00 | 0.00 | 49 | 1011.6 |
| 20260507062704 | 71 | 101 | 1.0 | 4.0 | 0.00 | 0.00 | 0.00 | 51 | 1011.8 |
| 20260507061803 | 71 | 102 | 2.0 | 4.0 | 0.00 | 0.00 | 0.00 | 50 | 1011.4 |
| 20260507061116 | 71 | 91 | 2.0 | 2.0 | 0.00 | 0.00 | 0.00 | 49 | 1011.5 |
| 20260507060213 | 71 | 359 | 0.0 | 2.0 | 0.00 | 0.00 | 0.00 | 51 | 1011.5 |
| 20260507055403 | 71 | 315 | 0.0 | 2.0 | 0.00 | 0.00 | 0.00 | 50 | 1011.1 |
| 20260507054717 | 70 | 315 | 0.0 | 2.0 | 0.00 | 0.00 | 0.00 | 52 | 1011.2 |
| 20260507053815 | 68 | 315 | 1.0 | 2.0 | 0.00 | 0.00 | 0.00 | 53 | 1011.2 |
| 20260507052917 | 67 | 292 | 0.0 | 2.0 | 0.00 | 0.00 | 0.00 | 52 | 1010.9 |
| 20260507051803 | 66 | 292 | 1.0 | 2.0 | 0.00 | 0.00 | 0.00 | 53 | 1010.9 |
| 20260507051117 | 65 | 308 | 0.0 | 2.0 | 0.00 | 0.00 | 0.00 | 55 | 1010.8 |
| 20260507050214 | 64 | 320 | 1.0 | 2.0 | 0.00 | 0.00 | 0.00 | 56 | 1010.8 |
| 20260507045403 | 63 | 323 | 1.0 | 4.0 | 0.00 | 0.00 | 0.00 | 57 | 1010.8 |
| 20260507044503 | 62 | 319 | 0.0 | 2.0 | 0.00 | 0.00 | 0.00 | 57 | 1010.8 |
| 20260507043604 | 62 | 315 | 1.0 | 2.0 | 0.00 | 0.00 | 0.00 | 58 | 1010.8 |
| 20260507042704 | 61 | 315 | 0.0 | 2.0 | 0.00 | 0.00 | 0.00 | 60 | 1010.7 |
| 20260507041803 | 61 | 315 | 0.0 | 2.0 | 0.00 | 0.00 | 0.00 | 60 | 1010.7 |
| 20260507040903 | 60 | 318 | 0.0 | 2.0 | 0.00 | 0.00 | 0.00 | 61 | 1010.8 |
| 20260507040215 | 60 | 321 | 1.0 | 2.0 | 0.00 | 0.00 | 0.00 | 61 | 1010.8 |
| 20260507035616 | 60 | 327 | 0.0 | 2.0 | 0.00 | 0.00 | 0.00 | 61 | 1010.8 |
| 20260507034503 | 60 | 315 | 0.0 | 2.0 | 0.00 | 0.00 | 0.00 | 61 | 1011.0 |
| 20260507033604 | 60 | 315 | 1.0 | 2.0 | 0.00 | 0.00 | 0.00 | 60 | 1010.7 |
| 20260507032913 | 60 | 315 | 0.0 | 2.0 | 0.00 | 0.00 | 0.00 | 60 | 1010.6 |
| 20260507032016 | 60 | 315 | 0.0 | 2.0 | 0.00 | 0.00 | 0.00 | 60 | 1010.7 |
| 20260507031113 | 60 | 325 | 1.0 | 2.0 | 0.00 | 0.00 | 0.00 | 60 | 1010.9 |
| 20260507030004 | 60 | 337 | 0.0 | 2.0 | 0.00 | 0.00 | 0.00 | 61 | 1010.5 |
| 20260507025617 | 60 | 337 | 0.0 | 2.0 | 0.00 | 0.00 | 0.00 | 60 | 1010.6 |
| 20260507024503 | 60 | 337 | 0.0 | 2.0 | 0.00 | 0.00 | 0.00 | 60 | 1010.7 |
| 20260507023604 | 60 | 337 | 0.0 | 2.0 | 0.00 | 0.00 | 0.00 | 60 | 1010.4 |
| 20260507022914 | 60 | 0 | 0.0 | 0.0 | 0.00 | 0.00 | 0.00 | 60 | 1010.7 |
| 20260507022016 | 60 | 337 | 0.0 | 2.0 | 0.00 | 0.00 | 0.00 | 59 | 1010.5 |
| 20260507020903 | 60 | 0 | 0.0 | 0.0 | 0.00 | 0.00 | 0.00 | 59 | 1010.6 |
| 20260507020004 | 60 | 337 | 0.0 | 2.0 | 0.00 | 0.00 | 0.00 | 59 | 1010.2 |
| 20260507015618 | 60 | 337 | 0.0 | 2.0 | 0.00 | 0.00 | 0.00 | 59 | 1010.3 |
| 20260507014715 | 61 | 332 | 0.0 | 2.0 | 0.00 | 0.00 | 0.00 | 58 | 1010.2 |
| 20260507013817 | 61 | 315 | 1.0 | 2.0 | 0.00 | 0.00 | 0.00 | 57 | 1010.3 |
| 20260507012704 | 61 | 315 | 0.0 | 2.0 | 0.00 | 0.00 | 0.00 | 57 | 1010.0 |
| 20260507011803 | 61 | 315 | 0.0 | 2.0 | 0.00 | 0.00 | 0.00 | 57 | 1010.1 |
| 20260507010004 | 62 | 315 | 0.0 | 2.0 | 0.00 | 0.00 | 0.00 | 56 | 1009.8 |
| 20260507005403 | 62 | 315 | 0.0 | 2.0 | 0.00 | 0.00 | 0.00 | 56 | 1009.8 |
| 20260507004503 | 62 | 315 | 0.0 | 2.0 | 0.00 | 0.00 | 0.00 | 55 | 1009.9 |
| 20260507003818 | 62 | 310 | 1.0 | 4.0 | 0.00 | 0.00 | 0.00 | 55 | 1009.6 |
| 20260507002915 | 63 | 292 | 1.0 | 6.0 | 0.00 | 0.00 | 0.00 | 55 | 1009.7 |
| 20260507002018 | 62 | 292 | 1.0 | 6.0 | 0.00 | 0.00 | 0.00 | 55 | 1009.8 |
| 20260507000903 | 62 | 292 | 0.0 | 2.0 | 0.00 | 0.00 | 0.00 | 56 | 1009.9 |
| 20260507000004 | 62 | 292 | 0.0 | 2.0 | 0.00 | 0.00 | 0.00 | 57 | 1010.0 |
| 20260506235403 | 62 | 292 | 0.0 | 2.0 | 0.00 | 0.00 | 0.00 | 57 | 1009.6 |